Location: Gad�tanya
(48.0500°N, 20.8500°E)
Time: 11:35:54
(UTC+00:00)

SL-16 R/B - Pass Details

Date: 05 July 2020
Orbit: 840 x 850 km, 71.0° (Epoch: 14 August)

Event Time Altitude Azimuth Distance (km) Brightness Sun altitude
Exits shadow 23:00:34 21° 233° (SW) 1,805 3.5 -19.2°
Maximum altitude 23:04:14 54° 303° (WNW) 1,024 2.7 -19.1°
Drops below altitude 10° 23:09:49 10° 21° (NNE) 2,482 5.8 -19.0°
Sets 23:12:21 0° 26° (NNE) 3,423 6.7 -18.9°
